Location: ????????
(55.3975°N, 38.2844°E)
Time: 04:42:22
(UTC+00:00)

BlueWalker 3 - Pass Details

Date: 13 August 2024
Orbit: 476 x 487 km, 53.2° (Epoch: 08 September)

Event Time Altitude Azimuth Distance (km) Brightness Sun altitude
Exits shadow 00:46:39 10° 253° (WSW) 1,691 4.1 -9.0°
Reaches altitude 10° 00:46:40 10° 253° (WSW) 1,687 4.0 -8.9°
Maximum altitude 00:50:26 61° 173° (S) 566 2.0 -8.6°
Drops below altitude 10° 00:54:15 10° 93° (E) 1,711 5.4 -8.1°
Sets 00:56:24 0° 90° (E) 2,575 6.4 -7.9°
